Location: Andrest
(43.3200°N, 0.0641°E)
Time: 23:00:56
(UTC+00:00)

SL-8 Rocket - Pass Details

Date: 28 April 2021
Orbit: 958 x 989 km, 82.9° (Epoch: 14 May)

Event Time Altitude Azimuth Distance (km) Brightness Sun altitude
Rises 01:29:51 0° 342° (NNW) 3,704 7.7 -28.7°
Reaches altitude 10° 01:32:41 10° 332° (NNW) 2,754 6.7 -28.5°
Enters shadow 01:37:16 29° 286° (WNW) 1,746 5.2 -28.1°
